Regional Weather Roundup
Issued by NWS Cleveland, OH

Home | Current Version | Previous Version | Graphics & Text | Print | Product List | Glossary On
Versions: 1 2 3 4 5 6 7 8 9 10 11 12 13 14 15 16 17 18 19 20 21 22 23 24 25 26 27 28 29 30 31 32 33 34 35 36 37 38 39 40 41 42 43 44 45 46 47 48 49 50
000
ASUS41 KCLE 301100
RWRCLE
OHIO REGIONAL WEATHER ROUNDUP
NATIONAL WEATHER SERVICE WILMINGTON, OH
700 AM EDT FRI SEP 30 2016

NOTE: "FAIR" INDICATES FEW OR NO CLOUDS BELOW 12,000 FEET WITH NO
SIGNIFICANT WEATHER AND/OR OBSTRUCTIONS TO VISIBILITY.

OHZ001>008-015>018-024>027-034-035-043-044-301200-
   NORTHWEST OHIO

CITY           SKY/WX    TMP DP  RH WIND       PRES   REMARKS
DEFIANCE       CLOUDY    61  57  87 NE6       30.07F
FINDLAY        CLOUDY    61  57  87 NE14      30.06S
TOLEDO EXPRESS CLOUDY    61  60  97 E9        30.10F
TOLEDO EXEC    CLOUDY    63  60  90 E9        30.12S
LIMA           CLOUDY    59  59 100 NE9       30.05R
$$

OHZ009>014-019>023-028>033-038-089-301200-
   NORTHEAST OHIO

CITY           SKY/WX    TMP DP  RH WIND       PRES   REMARKS
CLE-HOPKINS    LGT RAIN  61  55  81 E14       30.12F
CLE-LAKEFRONT  LGT RAIN  61  56  83 E12       30.10F
CUY CO. ARPT   MOCLDY    59  59 100 E12       30.13
LORAIN-ELYRIA  NOT AVBL
ASHTABULA      CLOUDY    57  56  96 E13       30.20F
AKRON-CANTON   CLOUDY    58  54  86 E10       30.13R
WOOSTER        NOT AVBL
MANSFIELD      CLOUDY    59  58  96 E13       30.08S
YOUNGSTOWN     LGT RAIN  56  54  93 E21G28    30.17S
$$

OHZ042-051>053-060>062-070>072-077>081-301200-
  SOUTHWEST OHIO

CITY           SKY/WX    TMP DP  RH WIND       PRES   REMARKS
CINC-COVINGTON MOCLDY    58  56  93 CALM      30.02F
CINC-LUNKEN    MOCLDY    56  56 100 CALM      30.03F
HAMILTON       CLOUDY    58  56  93 CALM      30.03F
DAYTON         NOT AVBL
WRIGHT-PAT AFB DRIZZLE   59  59 100 NW3       30.01F FOG
DAYTON GENERAL LGT RAIN  57  56  96 W3        30.01F FOG
WILMINGTON     CLOUDY    56  56 100 S6        30.02S FOG
$$

OHZ036-037-039>041-045>050-054>059-063>069-073>076-082>088-301200-
  CENTRAL AND SOUTHEAST OHIO

CITY           SKY/WX    TMP DP  RH WIND       PRES   REMARKS
COLUMBUS       CLOUDY    62  61  96 E12       30.02F
OSU AIRPORT    CLOUDY    62  61  96 E10       30.03R
BOLTON FIELD   NOT AVBL
RICKENBACK AFB NOT AVBL
NEWARK         CLOUDY    62  59  90 E8        30.04S
MARION         CLOUDY    61  58  90 E13       30.05F
LANCASTER      CLOUDY    62  60  93 E13G21    30.03S
ZANESVILLE     CLOUDY    60  57  89 E9        30.06R
NEW PHILLY     LGT RAIN  59  57  93 E9G18     30.12R
$$



USA.gov is the U.S. government's official web portal to all federal, state and local government web resources and services.